This is the latest recevied weather packets stored in our database for station/object WB3IGR. If no packets are shown the sender has not sent any weather packets the latest 10 day(s).
| Time | Temp. | Humidity | Pressure | Rain* | Wind** | Luminosity | Snow |
|---|---|---|---|---|---|---|---|
| 1777834286 | 14.44° C | 40% | 1015.3 hPa | 0 mm | - | 703 W/m² | - |
| 1777833982 | 15° C | 41% | 1015.1 hPa | 0 mm | - | 739 W/m² | - |
| 1777833679 | 13.89° C | 40% | 1015.1 hPa | 0 mm | - | 802 W/m² | - |
| 1777833375 | 14.44° C | 39% | 1015.4 hPa | 0 mm | - | 552 W/m² | - |
| 1777833073 | 15° C | 40% | 1015.2 hPa | 0 mm | - | 808 W/m² | - |
| 1777832771 | 14.44° C | 40% | 1015.4 hPa | 0 mm | - | 809 W/m² | - |
| 1777832469 | 14.44° C | 41% | 1015.2 hPa | 0 mm | - | 819 W/m² | - |
| 1777832165 | 14.44° C | 42% | 1015.2 hPa | 0 mm | - | 786 W/m² | - |
| 1777831862 | 13.89° C | 41% | 1015.4 hPa | 0 mm | - | 775 W/m² | - |
| 1777831559 | 13.89° C | 39% | 1015.2 hPa | 0 mm | - | 755 W/m² | - |
| 1777831257 | 13.33° C | 43% | 1015.4 hPa | 0 mm | - | 741 W/m² | - |
| 1777830954 | 13.89° C | 42% | 1015.5 hPa | 0 mm | - | 752 W/m² | - |
| 1777830651 | 13.89° C | 42% | 1015.5 hPa | 0 mm | - | 777 W/m² | - |
| 1777830348 | 13.33° C | 41% | 1015.7 hPa | 0 mm | - | 822 W/m² | - |
| 1777830044 | 12.78° C | 44% | 1015.8 hPa | 0 mm | - | 840 W/m² | - |
| 1777829739 | 12.22° C | 42% | 1015.8 hPa | 0 mm | - | 464 W/m² | - |
| 1777829436 | 12.22° C | 44% | 1015.7 hPa | 0 mm | - | 229 W/m² | - |
| 1777829134 | 12.22° C | 44% | 1015.7 hPa | 0 mm | - | 229 W/m² | - |
| 1777828830 | 13.33° C | 43% | 1015.9 hPa | 0 mm | - | 214 W/m² | - |
| 1777828527 | 11.67° C | 45% | 1016 hPa | 0 mm | - | 820 W/m² | - |
| 1777828225 | 12.22° C | 44% | 1015.9 hPa | 0 mm | - | 255 W/m² | - |
| 1777827921 | 12.78° C | 45% | 1016 hPa | 0 mm | - | 270 W/m² | - |
| 1777827618 | 12.78° C | 42% | 1015.9 hPa | 0 mm | - | 289 W/m² | - |
| 1777827315 | 12.78° C | 43% | 1016 hPa | 0 mm | - | 838 W/m² | - |
| 1777827011 | 12.78° C | 43% | 1016 hPa | 0 mm | - | 335 W/m² | - |
* Rain latest hour (hover to see other rain measurements)
** Current wind speed in m/s (hover to see current wind gust speed)